Location: Boissi�res
(45.2500°N, 2.3667°E)
Time: 19:59:12
(UTC+00:00)

Helios 1A Rocket - Pass Details

Date: 03 March 2021
Orbit: 563 x 585 km, 98.3° (Epoch: 19 April)

Event Time Altitude Azimuth Distance (km) Brightness Sun altitude
Rises 19:12:15 0° 177° (S) 2,767 6.3 -16.9°
Reaches altitude 10° 19:14:26 10° 183° (S) 1,871 5.5 -17.3°
Maximum altitude 19:18:23 51° 259° (W) 722 3.7 -18.0°
Drops below altitude 10° 19:22:20 10° 336° (NNW) 1,875 6.0 -18.6°
Sets 19:24:32 0° 342° (NNW) 2,774 6.8 -19.0°
